Flag for Uruguay Weather past 2 weeks in Durazno, Uruguay

Now
52 °F

Mostly cloudy.


Feels Like: 47 °F
Forecast: 46 / 55 °F
Wind: 15 mph from South

Location: Carrasco

Current Time: Jul 23, 2014 at 7:52:42 AM

Latest Report: Jul 23, 2014 at 7:00 AM


Visibility: N/A

Pressure: 29.92 "Hg

Humidity: 88%

Dew point: 48 °F

Location of DuraznoLocation

Historic Weather in Durazno — Graph

°F

Durazno temperature yesterday

Maximum temperature yesterday: 57 °F (at 12:00 AM)
Minimum temperature yesterday: 55 °F (at 1:00 AM)
Average temperature yesterday: 56 °F

Past Weeks' High & Low Weather Summary

 TemperatureHumidityPressure
High70 °F (Jul 14, 2:00 PM)100% (Jul 9, 4:00 AM)30.45 "Hg (Jul 9, 4:00 AM)
Low41 °F (Jul 9, 4:00 AM)43% (Jul 20, 2:00 PM)29.74 "Hg (Jul 22, 1:42 PM)
Average56 °F84%30.12 "Hg
* Reported Jul 8 6:00 AM — Jul 23 6:00 AM, Durazno, Weather by CustomWeather, © 2014

Note: Actual official high and low records may vary slightly from our data, if they occured in-between our weather recording intervals... More about our weather records

Advertising

Durazno weather history for previous 24 hours

 ConditionsComfort  
Time TempWeatherWind HumidityBarometerVisibility
6:00 AM
Jul 23
52 °FMostly cloudy.15 mph88%29.89 "HgN/A
5:00 AM54 °FMostly cloudy.12 mph88%29.89 "HgN/A
3:00 AM54 °FPassing clouds.10 mph94%29.89 "HgN/A
2:00 AM54 °FPassing clouds.14 mph94%29.86 "HgN/A
1:00 AM54 °FLow clouds.15 mph100%29.86 "Hg5 mi
12:06 AM55 °FPassing clouds.8 mph100%29.83 "Hg1 mi
12:00 AM55 °FFog.10 mph100%29.83 "Hg3 mi
11:00 PM
Jul 22
55 °FMostly cloudy.8 mph100%29.80 "Hg5 mi
10:00 PM55 °FLow clouds.6 mph100%29.80 "Hg5 mi
9:00 PM55 °FPassing clouds.9 mph100%29.80 "Hg4 mi
2:00 PM55 °FDrizzle. Broken clouds.5 mph100%29.74 "Hg1 mi
1:42 PM55 °FFog.7 mph100%29.74 "Hg1 mi
1:00 PM55 °FRain. More clouds than sun.9 mph94%29.77 "Hg1 mi
12:00 PM55 °FHeavy rain. Low clouds.3 mph94%29.83 "Hg1 mi
11:00 AM55 °FThunderstorms. Overcast.5 mph94%29.86 "Hg1 mi
10:00 AM55 °FThunderstorms. Overcast.No wind94%29.86 "Hg2 mi
9:00 AM57 °FThunderstorms. Partly sunny.7 mph82%29.80 "Hg3 mi
8:00 AM57 °FPartly sunny.8 mph82%29.83 "HgN/A
7:00 AM55 °FPartly sunny.3 mph94%29.83 "HgN/A
Weather by CustomWeather, © 2014

See weather overviewHow to use our weather pages